User: anonymous   Login
Location: Bailleul
(50.3375°N, 2.8513°E)
Time: 11:53:15
(UTC+00:00)
Language:

ALOS 2 - Orbit

View from above orbital plane
View from above orbital plane
View from above satellite
View from above satellite

Ground track
Ground track

The orbit data is extracted from the following two-line orbital elements,

1 39766U 14029A   21270.58360894 -.00000051  00000-0 -51110-8 0  9996
2 39766  97.9223   6.4843 0001492  90.4458 269.6927 14.79471362396762
Epoch (UTC): 27 September 2021 14:00:23
Eccentricity: 0.0001492
inclination: 97.9223°
perigee height: 630 km
apogee height: 632 km
right ascension of ascending node: 6.4843°
argument of perigee: 90.4458°
revolutions per day: 14.79471362
mean anomaly at epoch: 269.6927°
orbit number at epoch: 39676

The dashed part of the orbit path shows where the satellite is in the earth's shadow,  

DLR